Time,TemperatureF,DewpointF,PressureIn,WindDirection,WindDirectionDegrees,WindSpeedMPH,WindSpeedGustMPH,Humidity,HourlyPrecipIn,Conditions,Clouds,dailyrainin,SoftwareType,DateUTC
2013-11-10 00:11:00,54.7,-44.1,29.92,NNW,337,3.2,-999.0,1,-99.99,,,0.00,Acu-Link.com,2013-11-10 06:11:00,
2013-11-10 00:27:00,54.7,-44.1,29.92,NNE,22,3.7,-999.0,1,-99.99,,,0.00,Acu-Link.com,2013-11-10 06:27:00,
2013-11-10 00:42:00,54.5,-44.2,29.93,NW,315,2.2,-999.0,1,-99.99,,,0.00,Acu-Link.com,2013-11-10 06:42:00,
2013-11-10 00:57:00,54.5,-44.2,29.92,NNW,337,2.7,-999.0,1,-99.99,,,0.00,Acu-Link.com,2013-11-10 06:57:00,
2013-11-10 01:12:00,54.7,-44.1,29.92,NE,45,4.7,-999.0,1,-99.99,,,0.00,Acu-Link.com,2013-11-10 07:12:00,
2013-11-10 01:27:00,54.7,-44.1,29.92,NNE,22,4.7,-999.0,1,-99.99,,,0.00,Acu-Link.com,2013-11-10 07:27:00,
2013-11-10 01:43:00,54.9,-44.0,29.92,NNE,22,4.2,-999.0,1,-99.99,,,0.00,Acu-Link.com,2013-11-10 07:43:00,
2013-11-10 01:58:00,54.7,-44.1,29.92,NNW,337,4.7,-999.0,1,-99.99,,,0.00,Acu-Link.com,2013-11-10 07:58:00,
2013-11-10 02:13:00,54.5,-44.2,29.92,NNE,22,4.7,-999.0,1,-99.99,,,0.00,Acu-Link.com,2013-11-10 08:13:00,
2013-11-10 02:28:00,54.5,-44.2,29.92,ENE,67,3.2,-999.0,1,-99.99,,,0.00,Acu-Link.com,2013-11-10 08:28:00,
2013-11-10 02:44:00,54.1,-44.4,29.92,NE,45,2.7,-999.0,1,-99.99,,,0.00,Acu-Link.com,2013-11-10 08:44:00,
2013-11-10 02:59:00,54.1,-44.4,29.92,NNE,22,2.2,-999.0,1,-99.99,,,0.00,Acu-Link.com,2013-11-10 08:59:00,
2013-11-10 03:14:00,54.0,-44.5,29.92,NNW,337,2.7,-999.0,1,-99.99,,,0.00,Acu-Link.com,2013-11-10 09:14:00,
2013-11-10 03:29:00,53.8,-44.6,29.92,NNW,337,3.7,-999.0,1,-99.99,,,0.00,Acu-Link.com,2013-11-10 09:29:00,
2013-11-10 03:45:00,53.8,-44.6,29.93,NNE,22,3.7,-999.0,1,-99.99,,,0.00,Acu-Link.com,2013-11-10 09:45:00,
2013-11-10 04:00:00,53.6,-44.7,29.93,NNE,22,4.2,-999.0,1,-99.99,,,0.00,Acu-Link.com,2013-11-10 10:00:00,
2013-11-10 04:15:00,53.6,-44.7,29.93,NNE,22,1.1,-999.0,1,-99.99,,,0.00,Acu-Link.com,2013-11-10 10:15:00,
2013-11-10 04:30:00,53.4,-44.9,29.93,North,0,3.2,-999.0,1,-99.99,,,0.00,Acu-Link.com,2013-11-10 10:30:00,
2013-11-10 04:45:00,54.0,-44.5,29.94,NNE,22,2.7,-999.0,1,-99.99,,,0.00,Acu-Link.com,2013-11-10 10:45:00,
2013-11-10 05:01:00,52.7,-45.3,29.94,North,0,1.7,-999.0,1,-99.99,,,0.00,Acu-Link.com,2013-11-10 11:01:00,
2013-11-10 05:16:00,52.2,-45.6,29.94,NNE,22,1.7,-999.0,1,-99.99,,,0.00,Acu-Link.com,2013-11-10 11:16:00,
2013-11-10 05:31:00,52.0,-45.7,29.95,North,0,1.7,-999.0,1,-99.99,,,0.00,Acu-Link.com,2013-11-10 11:31:00,
2013-11-10 05:47:00,52.2,-45.6,29.95,NNE,22,2.2,-999.0,1,-99.99,,,0.00,Acu-Link.com,2013-11-10 11:47:00,
2013-11-10 06:02:00,52.3,-45.5,29.96,NNW,337,2.7,-999.0,1,-99.99,,,0.00,Acu-Link.com,2013-11-10 12:02:00,
2013-11-10 06:17:00,52.2,-45.6,29.96,North,0,2.7,-999.0,1,-99.99,,,0.00,Acu-Link.com,2013-11-10 12:17:00,
2013-11-10 06:32:00,51.8,-45.8,29.97,North,0,2.7,-999.0,1,-99.99,,,0.00,Acu-Link.com,2013-11-10 12:32:00,
2013-11-10 06:48:00,51.6,-46.0,29.97,NE,45,2.2,-999.0,1,-99.99,,,0.00,Acu-Link.com,2013-11-10 12:48:00,
2013-11-10 07:03:00,52.2,-45.6,29.97,NW,315,2.2,-999.0,1,-99.99,,,0.00,Acu-Link.com,2013-11-10 13:03:00,
2013-11-10 07:33:00,57.0,-42.7,29.99,NNE,22,2.7,-999.0,1,-99.99,,,0.00,Acu-Link.com,2013-11-10 13:33:00,
2013-11-10 07:48:00,58.8,-41.6,29.99,NNW,337,5.3,-999.0,1,-99.99,,,0.00,Acu-Link.com,2013-11-10 13:48:00,
2013-11-10 08:03:00,59.5,-41.2,29.99,NNW,337,6.3,-999.0,1,-99.99,,,0.00,Acu-Link.com,2013-11-10 14:03:00,
2013-11-10 08:18:00,61.3,-40.1,30.00,North,0,4.7,-999.0,1,-99.99,,,0.00,Acu-Link.com,2013-11-10 14:18:00,
2013-11-10 08:34:00,63.5,-38.7,29.99,NE,45,4.7,-999.0,1,-99.99,,,0.00,Acu-Link.com,2013-11-10 14:34:00,
2013-11-10 08:49:00,65.5,-37.5,29.99,NE,45,5.3,-999.0,1,-99.99,,,0.00,Acu-Link.com,2013-11-10 14:49:00,
2013-11-10 09:04:00,65.8,-37.3,29.99,North,0,6.3,-999.0,1,-99.99,,,0.00,Acu-Link.com,2013-11-10 15:04:00,
2013-11-10 09:19:00,68.0,-36.0,29.99,NNE,22,4.2,-999.0,1,-99.99,,,0.00,Acu-Link.com,2013-11-10 15:19:00,
2013-11-10 09:34:00,69.8,-34.9,29.99,NNE,22,4.7,-999.0,1,-99.99,,,0.00,Acu-Link.com,2013-11-10 15:34:00,
2013-11-10 09:50:00,70.5,-34.5,29.99,NNE,22,6.8,-999.0,1,-99.99,,,0.00,Acu-Link.com,2013-11-10 15:50:00,
2013-11-10 10:05:00,72.3,-33.4,29.98,NE,45,4.7,-999.0,1,-99.99,,,0.00,Acu-Link.com,2013-11-10 16:05:00,
2013-11-10 10:20:00,73.6,-32.7,29.98,North,0,1.7,-999.0,1,-99.99,,,0.00,Acu-Link.com,2013-11-10 16:20:00,
2013-11-10 10:35:00,74.5,-32.1,29.98,NNE,22,4.2,-999.0,1,-99.99,,,0.00,Acu-Link.com,2013-11-10 16:35:00,
2013-11-10 10:51:00,75.4,-31.6,29.98,NE,45,5.3,-999.0,1,-99.99,,,0.00,Acu-Link.com,2013-11-10 16:51:00,
2013-11-10 11:06:00,75.0,-31.8,29.97,ENE,67,4.2,-999.0,1,-99.99,,,0.00,Acu-Link.com,2013-11-10 17:06:00,
2013-11-10 11:21:00,75.0,-31.8,29.97,NNW,337,9.4,-999.0,1,-99.99,,,0.00,Acu-Link.com,2013-11-10 17:21:00,
2013-11-10 11:36:00,73.8,-32.5,29.95,North,0,5.3,-999.0,1,-99.99,,,0.00,Acu-Link.com,2013-11-10 17:36:00,
2013-11-10 11:51:00,74.8,-31.9,29.95,ENE,67,6.8,-999.0,1,-99.99,,,0.00,Acu-Link.com,2013-11-10 17:51:00,
2013-11-10 12:06:00,73.6,-32.7,29.95,NE,45,6.8,-999.0,1,-99.99,,,0.00,Acu-Link.com,2013-11-10 18:06:00,
2013-11-10 12:21:00,74.8,-31.9,29.94,NE,45,4.7,-999.0,1,-99.99,,,0.00,Acu-Link.com,2013-11-10 18:21:00,
2013-11-10 12:36:00,75.4,-31.6,29.94,NNE,22,4.2,-999.0,1,-99.99,,,0.00,Acu-Link.com,2013-11-10 18:36:00,
2013-11-10 12:51:00,75.7,-31.4,29.92,NW,315,5.3,-999.0,1,-99.99,,,0.00,Acu-Link.com,2013-11-10 18:51:00,
2013-11-10 13:06:00,75.2,-31.7,29.92,NNE,22,5.3,-999.0,1,-99.99,,,0.00,Acu-Link.com,2013-11-10 19:06:00,
2013-11-10 13:21:00,74.7,-32.0,29.91,NE,45,6.8,-999.0,1,-99.99,,,0.00,Acu-Link.com,2013-11-10 19:21:00,
2013-11-10 13:37:00,75.0,-31.8,29.91,NE,45,3.2,-999.0,1,-99.99,,,0.00,Acu-Link.com,2013-11-10 19:37:00,
2013-11-10 13:52:00,75.0,-31.8,29.91,NE,45,7.3,-999.0,1,-99.99,,,0.00,Acu-Link.com,2013-11-10 19:52:00,
2013-11-10 14:07:00,75.0,-31.8,29.90,NNW,337,7.8,-999.0,1,-99.99,,,0.00,Acu-Link.com,2013-11-10 20:07:00,
2013-11-10 14:22:00,75.2,-31.7,29.90,NNW,337,6.3,-999.0,1,-99.99,,,0.00,Acu-Link.com,2013-11-10 20:22:00,
2013-11-10 14:37:00,75.6,-31.5,29.90,NE,45,4.7,-999.0,1,-99.99,,,0.00,Acu-Link.com,2013-11-10 20:37:00,
2013-11-10 14:52:00,75.6,-31.5,29.91,WNW,292,5.3,-999.0,1,-99.99,,,0.00,Acu-Link.com,2013-11-10 20:52:00,
2013-11-10 15:07:00,75.0,-31.8,29.91,NE,45,6.8,-999.0,1,-99.99,,,0.00,Acu-Link.com,2013-11-10 21:07:00,
2013-11-10 15:23:00,75.0,-31.8,29.91,West,270,4.2,-999.0,1,-99.99,,,0.00,Acu-Link.com,2013-11-10 21:23:00,
2013-11-10 15:38:00,74.5,-32.1,29.91,NE,45,3.2,-999.0,1,-99.99,,,0.00,Acu-Link.com,2013-11-10 21:38:00,
2013-11-10 15:53:00,74.5,-32.1,29.90,NNE,22,4.7,-999.0,1,-99.99,,,0.00,Acu-Link.com,2013-11-10 21:53:00,
2013-11-10 16:09:00,73.6,-32.7,29.90,NNE,22,8.3,-999.0,1,-99.99,,,0.00,Acu-Link.com,2013-11-10 22:09:00,
2013-11-10 16:24:00,72.9,-33.1,29.90,NNE,22,4.2,-999.0,1,-99.99,,,0.00,Acu-Link.com,2013-11-10 22:24:00,
2013-11-10 16:39:00,72.1,-33.6,29.90,North,0,4.2,-999.0,1,-99.99,,,0.00,Acu-Link.com,2013-11-10 22:39:00,
2013-11-10 16:54:00,71.1,-34.2,29.90,NNW,337,3.2,-999.0,1,-99.99,,,0.00,Acu-Link.com,2013-11-10 22:54:00,
2013-11-10 17:09:00,69.1,-35.4,29.91,North,0,2.7,-999.0,1,-99.99,,,0.00,Acu-Link.com,2013-11-10 23:09:00,
2013-11-10 17:24:00,66.9,-36.7,29.91,WNW,292,2.2,-999.0,1,-99.99,,,0.00,Acu-Link.com,2013-11-10 23:24:00,
2013-11-10 17:39:00,64.8,-37.9,29.92,WNW,292,1.7,-999.0,1,-99.99,,,0.00,Acu-Link.com,2013-11-10 23:39:00,
2013-11-10 17:55:00,62.2,-39.5,29.93,SSW,202,0.0,-999.0,1,-99.99,,,0.00,Acu-Link.com,2013-11-10 23:55:00,
2013-11-10 18:10:00,60.4,-40.6,29.92,WNW,292,0.0,-999.0,1,-99.99,,,0.00,Acu-Link.com,2013-11-11 00:10:00,
2013-11-10 18:25:00,59.4,-41.2,29.92,West,270,1.1,-999.0,1,-99.99,,,0.00,Acu-Link.com,2013-11-11 00:25:00,
2013-11-10 18:41:00,58.5,-41.8,29.93,WNW,292,0.0,-999.0,1,-99.99,,,0.00,Acu-Link.com,2013-11-11 00:41:00,
2013-11-10 18:56:00,57.7,-42.3,29.93,West,270,0.0,-999.0,1,-99.99,,,0.00,Acu-Link.com,2013-11-11 00:56:00,
2013-11-10 19:11:00,57.0,-42.7,29.93,West,270,0.0,-999.0,1,-99.99,,,0.00,Acu-Link.com,2013-11-11 01:11:00,
2013-11-10 19:26:00,56.5,-43.0,29.94,WSW,247,0.0,-999.0,1,-99.99,,,0.00,Acu-Link.com,2013-11-11 01:26:00,
2013-11-10 19:42:00,55.8,-43.4,29.94,West,270,0.0,-999.0,1,-99.99,,,0.00,Acu-Link.com,2013-11-11 01:42:00,
2013-11-10 19:57:00,55.2,-43.8,29.94,West,270,0.0,-999.0,1,-99.99,,,0.00,Acu-Link.com,2013-11-11 01:57:00,
2013-11-10 20:12:00,54.9,-44.0,29.95,WNW,292,0.0,-999.0,1,-99.99,,,0.00,Acu-Link.com,2013-11-11 02:12:00,
2013-11-10 20:28:00,54.7,-44.1,29.95,West,270,0.0,-999.0,1,-99.99,,,0.00,Acu-Link.com,2013-11-11 02:28:00,
2013-11-10 20:43:00,54.5,-44.2,29.95,WNW,292,0.0,-999.0,1,-99.99,,,0.00,Acu-Link.com,2013-11-11 02:43:00,
2013-11-10 20:58:00,54.5,-44.2,29.95,NNE,22,0.0,-999.0,1,-99.99,,,0.00,Acu-Link.com,2013-11-11 02:58:00,
2013-11-10 21:14:00,54.7,-44.1,29.95,ENE,67,0.0,-999.0,1,-99.99,,,0.00,Acu-Link.com,2013-11-11 03:14:00,
2013-11-10 21:29:00,55.2,-43.8,29.95,NNE,22,1.1,-999.0,1,-99.99,,,0.00,Acu-Link.com,2013-11-11 03:29:00,
2013-11-10 21:44:00,55.0,-43.9,29.95,NNE,22,1.1,-999.0,1,-99.99,,,0.00,Acu-Link.com,2013-11-11 03:44:00,
2013-11-10 21:59:00,55.0,-43.9,29.95,North,0,1.1,-999.0,1,-99.99,,,0.00,Acu-Link.com,2013-11-11 03:59:00,
2013-11-10 22:15:00,54.9,-44.0,29.96,NNW,337,2.2,-999.0,1,-99.99,,,0.00,Acu-Link.com,2013-11-11 04:15:00,
2013-11-10 22:30:00,54.5,-44.2,29.95,North,0,0.0,-999.0,1,-99.99,,,0.00,Acu-Link.com,2013-11-11 04:30:00,
2013-11-10 22:45:00,54.1,-44.4,29.95,North,0,0.0,-999.0,1,-99.99,,,0.00,Acu-Link.com,2013-11-11 04:45:00,
2013-11-10 23:00:00,54.0,-44.5,29.95,NNE,22,1.7,-999.0,1,-99.99,,,0.00,Acu-Link.com,2013-11-11 05:00:00,
2013-11-10 23:16:00,53.8,-44.6,29.94,NNW,337,0.0,-999.0,1,-99.99,,,0.00,Acu-Link.com,2013-11-11 05:16:00,
2013-11-10 23:31:00,53.6,-44.7,29.94,NNW,337,0.0,-999.0,1,-99.99,,,0.00,Acu-Link.com,2013-11-11 05:31:00,